STARLINK-3930 (52568 NORAD) Tracking and Keplerian Element Data

This shows tracking and keplerian element data for the satellite.

Feedback or suggestion? Click here.




ElementValue
Catalog52568
NameSTARLINK-3930
Epoch Orbit130
Epoch Day192.91667824
Epoch Year2022
RAAN2.3671
Inclination53.2174
Eccentricity0.0001592
Argument of Perigee35.9071
Mean Anonmoly354.6001
Mean Motion15.46654062
Decay Rate-0.01054842
L11 52568U 22051AM 22192.91667824 -.01054842 00000+0 -22924-1 0 9990
L22 52568 53.2174 2.3671 0001592 35.9071 354.6001 15.46654062 1303

Live tracking and technical data element details for STARLINK-3930 (NORAD 52568). STARLINK-3930 can be tracked NOW for your location showing map with azimuth and elevation plus other details from your city location.

Track the satellite on the map from your city or location and see movement details for azimuth, elevation, latitude, longitude, range, height, and movement on the map or in text.







IsCatalogInMostPopularTable: catalog: 52568, numindb: 8
Update: records affected: 1



GetName: 52568 STARLINK-3930

Hit Count: updated at: Sun, 14 Aug 2022 00:27:16 GMT